Content
SEND FEEDBACK

Daily
Averages
Monthly
Summary
United States of America

BLACK HAWK, SOUTH DAKOTA


Home > North America > United States > South Dakota
Elevation: 3352 feet     Latitude: 44 05N     Longitude: 103 16W

WEATHER
 
SELECT A DAY
Number of Records: 207,026;   Date Range: 1/1/95 - 9/29/14
 
SHARE

PRINT THIS DATA

[ ← Previous Day ]
WEATHER ALMANAC - JULY 28, 2013
[ Next Day → ]
[ °C ]   °F
Weather ElementAverageHighLow
Temperature67.1 °F78.1 °F (2:58 pm)53.8 °F (4:58 am)
Dewpoint54.5 °F58.3 °F (8:58 pm)48.2 °F (2:58 am)
Humidity65.1 %87 % (5:58 am)47 % (11:58 am)
Barometer29.90 in29.96 in (1:58 am)29.85 in (4:58 pm)
Wind Speed12.2 mph18.4 mph (4:58 pm)
Wind Gust25.3 mph (4:58 pm)
Weather ElementAverage
Visibility10 mi
Wind DirectionSSE (158.7 °)

Weather ElementTotal
Precipitation---
Cooling Degree Days0.9 (Base 65)
Growing Degree Days16 (Base 50)
Averaged from 23 records on July 28, 2013
WEATHER CONDITIONS BREAKOUT
WIND DIRECTION BREAKOUT
WEATHER BY HOUR - JULY 28, 2013
[ °C ]   °F
Local TimeTemperatureDewpointHumidityBarometerVisibilityWind DirectionWind SpeedGust SpeedPrecipitationEventsConditions
1:58 AM56.8 °F48.9 °F75 %29.96 in10.0 miSSE (150°)10.4 mphScattered Clouds
2:58 AM56.3 °F48.2 °F74 %29.94 in10.0 miESE (120°)6.9 mphPartly Cloudy
3:58 AM54.9 °F48.2 °F78 %29.92 in10.0 miSSE (150°)6.9 mphOvercast
4:58 AM53.8 °F48.4 °F82 %29.91 in10.0 miSSE (150°)5.8 mphOvercast
5:58 AM53.8 °F50.0 °F87 %29.92 in10.0 miSE (140°)4.6 mphClear
6:58 AM56.8 °F52.0 °F84 %29.93 in10.0 miSSE (150°)12.7 mphClear
7:58 AM61.3 °F52.7 °F73 %29.91 in10.0 miSSE (160°)16.1 mphClear
8:58 AM65.8 °F53.8 °F65 %29.92 in10.0 miSSE (150°)15.0 mphClear
9:58 AM70.2 °F54.9 °F58 %29.90 in10.0 miSSE (160°)13.8 mphClear
10:58 AM73.9 °F55.4 °F52 %29.90 in10.0 miSE (140°)12.7 mph19.6 mphMostly Cloudy
11:58 AM77.4 °F55.8 °F47 %29.88 in10.0 miSouth (170°)15.0 mph23.0 mphPartly Cloudy
12:58 PM75.9 °F56.5 °F51 %29.88 in10.0 miSSE (160°)12.7 mphOvercast
1:58 PM76.3 °F57.2 °F52 %29.88 in10.0 miSSE (160°)10.4 mphOvercast
2:58 PM78.1 °F57.9 °F50 %29.87 in10.0 miSouth (170°)16.1 mphMostly Cloudy
3:58 PM75.9 °F57.9 °F54 %29.86 in10.0 miSouth (180°)16.1 mphMostly Cloudy
4:58 PM73.9 °F57.0 °F55 %29.85 in10.0 miSouth (170°)18.4 mph25.3 mphOvercast
5:58 PM73.8 °F56.3 °F54 %29.87 in10.0 miSSE (150°)12.7 mphMostly Cloudy
6:58 PM73.0 °F57.2 °F57 %29.87 in10.0 miSSE (160°)10.4 mphMostly Cloudy
7:58 PM71.1 °F57.9 °F63 %29.87 in10.0 miSouth (180°)11.5 mphPartly Cloudy
8:58 PM69.1 °F58.3 °F68 %29.89 in10.0 miSouth (180°)6.9 mphOvercast
9:58 PM66.4 °F56.8 °F71 %29.90 in10.0 miSSE (160°)13.8 mphPartly Cloudy
10:58 PM65.1 °F55.6 °F71 %29.90 in10.0 miSSE (160°)17.3 mphMostly Cloudy
11:58 PM63.9 °F56.7 °F77 %29.88 in10.0 miSouth (180°)15.0 mphScattered Clouds
Hourly data recorded from KRCA, located miles away from Black Hawk, South Dakota







STORIES FROM OUR PARTNERS